This is the latest recevied weather packets stored in our database for station/object AE5HO. If no packets are shown the sender has not sent any weather packets the latest 10 day(s).
| Time | Temp. | Humidity | Pressure | Rain* | Wind** | Luminosity | Snow |
|---|---|---|---|---|---|---|---|
| 1787659107 | 27.78° C | 65% | 1016 hPa | 0 mm | - | 0 W/m² | - |
| 1787658802 | 28.33° C | 67% | 1015.8 hPa | 0 mm | - | 0 W/m² | - |
| 1787658501 | 28.33° C | 60% | 1015.7 hPa | 0 mm | - | 0 W/m² | - |
| 1787658198 | 27.78° C | 61% | 1015.7 hPa | 0 mm | - | 0 W/m² | - |
| 1787657893 | 27.78° C | 60% | 1015.4 hPa | 0 mm | - | 0 W/m² | - |
| 1787657593 | 27.78° C | 62% | 1015.4 hPa | 0 mm | - | 0 W/m² | - |
| 1787657288 | 27.78° C | 64% | 1015.1 hPa | 0 mm | - | 0 W/m² | - |
| 1787656984 | 27.78° C | 63% | 1015 hPa | 0 mm | - | 0 W/m² | - |
| 1787656680 | 28.33° C | 68% | 1014.8 hPa | 0 mm | - | 0 W/m² | - |
| 1787656376 | 28.89° C | 64% | 1014.6 hPa | 0 mm | - | 0 W/m² | - |
| 1787656075 | 28.89° C | 58% | 1014.6 hPa | 0 mm | - | 0 W/m² | - |
| 1787655773 | 28.89° C | 57% | 1014.5 hPa | 0 mm | - | 0 W/m² | - |
| 1787655471 | 29.44° C | 55% | 1014.7 hPa | 0 mm | - | 0 W/m² | - |
| 1787655170 | 29.44° C | 55% | 1014.2 hPa | 0 mm | - | 0 W/m² | - |
| 1787654867 | 29.44° C | 54% | 1014.2 hPa | 0 mm | - | 0 W/m² | - |
| 1787654562 | 29.44° C | 54% | 1014.2 hPa | 0 mm | - | 0 W/m² | - |
| 1787654257 | 29.44° C | 54% | 1014.3 hPa | 0 mm | - | 0 W/m² | - |
| 1787653952 | 29.44° C | 53% | 1014.1 hPa | 0 mm | - | 0 W/m² | - |
| 1787653647 | 30° C | 54% | 1014 hPa | 0 mm | - | 0 W/m² | - |
| 1787653343 | 30° C | 53% | 1014.3 hPa | 0 mm | - | 0 W/m² | - |
| 1787653039 | 30° C | 52% | 1014.2 hPa | 0 mm | - | 0 W/m² | - |
| 1787652733 | 30° C | 52% | 1014.2 hPa | 0 mm | - | 0 W/m² | - |
| 1787652428 | 30° C | 52% | 1014 hPa | 0 mm | - | 0 W/m² | - |
| 1787652123 | 30° C | 52% | 1013.9 hPa | 0 mm | - | 0 W/m² | - |
| 1787651822 | 30° C | 52% | 1013.9 hPa | 0 mm | - | 0 W/m² | - |
* Rain latest hour (hover to see other rain measurements)
** Current wind speed in m/s (hover to see current wind gust speed)